Location: Dos Palmas
(32.4468°N, 116.8732°W)
Time: 02:15:41
(UTC+00:00)

Cosmos 1092 Rocket - Pass Details

Date: 20 June 2021
Orbit: 955 x 994 km, 82.9° (Epoch: 27 July)

Event Time Altitude Azimuth Distance (km) Brightness Sun altitude
Exits shadow 09:54:21 49° 274° (W) 1,211 4.2 -26.6°
Maximum altitude 09:54:30 49° 279° (W) 1,209 4.3 -26.6°
Drops below altitude 10° 10:00:26 10° 354° (N) 2,689 6.9 -25.9°
Sets 10:03:02 0° 359° (N) 3,640 7.8 -25.6°
